[[{"header":{"parameterUnit":"m.s-1","parameterCategory":1,"la1":30.2991,"la2":30.254,"lo1":-89.0895,"lo2":-89.0444,"dy":0.0017,"dx":0.0017,"nx":28,"ny":28,"refTime":"2024-10-18T09:00:00:Z","depth":0,"parameterNumber":2,"parameterNumberName":"U-component_of_WINDS"},"data":[0,0,0,0,0,0,0,0,0,0,0,0,0,0,0,0,0,0,0,0,0,0,0,0,0,0,0,0,0,0,0,0,0,0,0,0,0,0,0,0,0,0,0,0,0,0,0,0,0,0,0,0,0,0,0,0,0,0,-4.937,-4.937,0,-4.9408,-4.9409,-4.9409,-4.9201,-4.9195,-4.9189,-4.9183,-4.9227,-4.9234,-4.9241,0,0,0,0,0,0,0,0,0,0,0,0,0,-4.912,-4.9126,-4.937,-4.937,-4.9371,-4.9408,-4.9409,-4.9409,-4.9202,-4.9195,-4.9187,-4.918,-4.9225,-4.9233,-4.9241,0,0,0,0,0,0,0,0,0,0,0,0,0,-4.9201,-4.9128,-4.937,-4.9272,-4.9263,-4.9408,-4.9409,-4.9409,-4.9203,-4.9194,-4.9185,-4.9177,-4.9222,-4.9232,-4.9242,-4.9484,0,0,-4.9273,-4.9278,0,0,0,0,0,0,0,0,-4.9196,-4.921,-4.9286,-4.9279,-4.927,-4.929,-4.9336,-4.9435,-4.9206,-4.9226,-4.9183,-4.9173,-4.9256,-4.9263,-4.929,-4.9486,-4.9488,-4.9274,-4.928,-4.9285,-4.9287,0,0,0,0,0,0,0,-4.9191,-4.9207,-4.9385,-4.9287,-4.9277,-4.9227,-4.9228,-4.9354,-4.9291,-4.9224,-4.9209,-4.9216,-4.925,-4.9281,-4.9289,-4.9489,-4.9274,-4.9283,-4.9289,-4.9293,-4.9885,-4.9894,0,0,0,0,0,0,-4.9198,-4.9204,-4.9384,-4.9386,-4.921,-4.9239,-4.924,-4.9293,-4.9289,-4.928,-4.9224,-4.9206,-4.9268,-4.9278,-4.929,-4.9572,-4.9285,-4.9294,-4.93,-4.9875,-4.9887,-4.9897,0,0,0,0,0,0,-4.9194,-4.9216,-4.9382,-4.9291,-4.9308,-4.9252,-4.9313,-4.9298,-4.9329,-4.9289,-4.9277,-4.9266,-4.9261,-4.9276,-4.9437,-4.9571,-4.9299,-4.9308,-4.9864,-4.9879,-4.9892,-5.0141,0,0,0,0,0,0,-4.9187,-4.9216,-4.9307,-4.9295,-4.9314,-4.9529,-4.9321,-4.9306,-4.9346,-4.9324,-4.9326,-4.9318,-4.9255,-4.9423,-4.9447,-4.958,-4.9316,-4.9852,-4.987,-4.9887,-5.012,-5.0162,-5.0197,0,0,0,0,0,-4.9179,-4.9377,-4.9312,-4.9335,-4.9426,-4.9537,-4.9548,-4.947,-4.9358,-4.9449,-4.9423,-4.9318,-4.9552,-4.9441,-4.9467,-4.9605,-4.9843,-4.9865,-4.9886,-5.0103,-5.0154,-5.0197,0,0,0,0,0,0,-4.9408,-4.9373,-4.9302,-4.9501,-4.9523,-4.9501,-4.9614,-4.9527,-4.9583,-4.956,-4.9462,-4.9465,-4.9643,-4.9639,-4.9516,-4.9838,-4.9678,-4.9706,-4.9834,-4.9882,-4.992,-4.9918,-4.9324,0,0,0,0,0,-4.9482,-4.9573,-4.9538,-4.9717,-4.9731,-4.9672,-4.9717,-4.9655,-4.9675,-4.9684,-4.9669,-4.9694,-4.9772,-4.9827,-4.9897,-5.0118,-5.0116,-5.0225,-5.0264,-5.0296,-5.0322,-5.0438,-5.0486,-4.9969,-4.9968,-4.9968,0,0,-4.9635,-4.9627,-4.9691,-4.9763,-4.9773,-4.987,-4.9681,-4.9793,-4.9864,-4.9701,-4.9852,-4.9842,-4.9863,-5.0055,-5.0139,-5.0058,-5.0464,-5.0324,-5.0349,-5.0358,-5.0465,-5.0514,-5.0558,-4.9983,-4.9981,-4.9978,0,0,-4.9964,-4.9967,-5.0116,-5.0129,-5.0146,-5.0104,-5.014,-5.0131,-5.0118,-5.0267,-5.0146,-5.0231,-5.0369,-5.0388,-5.0416,-5.0751,-5.0656,-5.0776,-5.0979,-5.1093,-5.1134,-5.1169,-5.1289,-5.1333,-5.0802,-5.0802,-5.0803,0,-5.0153,-5.0294,-5.0205,-5.0324,-5.0359,-5.0213,-5.0363,-5.0381,-5.0421,-5.0449,-5.0357,-5.0526,-5.053,-5.0724,-5.0805,-5.0833,-5.0871,-5.0777,-5.1135,-5.117,-5.1202,-5.1315,-5.136,-5.0817,-5.0815,-5.0814,-5.0812,0,-5.0526,-5.0626,-5.0744,-5.0784,-5.0832,-5.0967,-5.0898,-5.0958,-5.0892,-5.086,-5.1014,-5.1013,-5.108,-5.1121,-5.1058,-5.1307,-5.1255,-5.1151,-5.0988,-5.1267,-5.1372,-5.1414,-5.0838,-5.0833,-5.0828,-5.0825,0,0,-5.1003,-5.0989,-5.1034,-5.105,-5.1057,-5.1133,-5.126,-5.1324,-5.1377,-5.1409,-5.1514,-5.1634,-5.1536,-5.1568,-5.1506,-5.1606,-5.1871,-5.1488,-5.1487,-5.156,-5.2145,-5.2224,-5.2276,-5.1807,-5.1815,-5.1821,-5.2143,0,-5.1325,-5.1541,-5.1463,-5.1685,-5.1776,-5.1637,-5.1748,-5.1765,-5.1739,-5.1813,-5.1783,-5.187,-5.1734,-5.1752,-5.1845,-5.1819,-5.1987,-5.1795,-5.1905,-5.191,-5.1906,-5.233,-5.2415,-5.2719,-5.2183,-5.219,-5.2195,0,-5.173,-5.1776,-5.2007,-5.1996,-5.2031,-5.2133,-5.2184,-5.2256,-5.2272,-5.2245,-5.2281,-5.2196,-5.2321,-5.2157,-5.2329,-5.22,-5.224,-5.2234,-5.2244,-5.2252,-5.2071,-5.2351,-5.2814,-5.286,-5.2259,-5.2254,-5.2249,0,-5.2055,-5.2175,-5.2328,-5.2346,-5.2337,-5.2412,-5.2412,-5.2418,-5.2461,-5.2506,-5.2533,-5.2594,-5.2627,-5.2676,-5.261,-5.2497,-5.2792,-5.2622,-5.2774,-5.2776,-5.2844,-5.2841,-5.3321,-5.2869,-5.2868,-5.2867,-5.2866,0,-5.2424,-5.2571,-5.2474,-5.2568,-5.2728,-5.2637,-5.2799,-5.2783,-5.279,-5.2879,-5.2763,-5.285,-5.2757,-5.2836,-5.2785,-5.2935,-5.2951,-5.2933,-5.2919,-5.2945,-5.2947,-5.2971,-5.2948,-5.2879,-5.2877,-5.2874,-5.2872,0,-5.2815,-5.2756,-5.2913,-5.2891,-5.2889,-5.3009,-5.299,-5.3077,-5.304,-5.3155,-5.3177,-5.3122,-5.3208,-5.3146,-5.3233,-5.3198,-5.3395,-5.335,-5.339,-5.3378,-5.3533,-5.352,-5.4046,-5.4111,-5.3617,-5.3622,-5.3626,0,-5.3055,-5.3164,-5.3153,-5.3203,-5.321,-5.3294,-5.3336,-5.3251,-5.33,-5.3325,-5.3409,-5.3484,-5.354,-5.3684,-5.3653,-5.3718,-5.3674,-5.3854,-5.3683,-5.3706,-5.3677,-5.3672,-5.3682,-5.3889,-5.3895,-5.39,-5.3903,0,-5.3486,-5.3451,-5.3515,-5.3571,-5.3624,-5.3664,-5.3694,-5.3743,-5.3655,-5.3717,-5.3802,-5.3845,-5.3932,-5.4009,-5.4062,-5.4062,-5.397,-5.3957,-5.3996,-5.4024,-5.4043,-5.4035,-5.3485,-5.3946,-5.3942,-5.3939,-5.3936,-5.3935,-5.3809,-5.3899,-5.3905,-5.3981,-5.3994,-5.4025,-5.4105,-5.4078,-5.4147,-5.4209,-5.4155,-5.4258,-5.4269,-5.433,-5.4342,-5.4422,-5.4348,-5.4404,-5.4419,-5.4434,-5.4456,-5.4029,-5.4431,-5.443,-5.4429,-5.4428,-5.4427,0,-5.4234,-5.4231,-5.4301,-5.4346,-5.4406,-5.4311,-5.4339,-5.4396,-5.4487,-5.4505,-5.4562,-5.466,-5.4733,-5.4706,-5.4771,-5.484,-5.48,-5.486,-5.4855,-5.4857,-5.4518,-5.4478,-5.4892,-5.4892,-5.4892,-5.4892,-5.4892,-5.4892,-5.4463,-5.461,-5.4576,-5.4728,-5.4723,-5.4822,-5.4846,-5.4874,-5.4887,-5.5001,-5.5061,-5.5042,-5.5043,-5.5106,-5.517,-5.516,-5.5189,-5.5266,-5.5242,-5.4926,-5.4881,-5.4837,-5.4799,-5.5273,-5.5274,-5.5573,-5.5576,-5.5578]},{"header":{"parameterUnit":"m.s-1","parameterCategory":1,"la1":30.2991,"la2":30.254,"lo1":-89.0895,"lo2":-89.0444,"dy":0.0017,"dx":0.0017,"nx":28,"ny":28,"refTime":"2024-10-18T09:00:00:Z","depth":0,"parameterNumber":3,"parameterNumberName":"V-component_of_WINDS"},"data":[0,0,0,0,0,0,0,0,0,0,0,0,0,0,0,0,0,0,0,0,0,0,0,0,0,0,0,0,0,0,0,0,0,0,0,0,0,0,0,0,0,0,0,0,0,0,0,0,0,0,0,0,0,0,0,0,0,0,-2.4357,-2.4358,0,-2.4407,-2.4408,-2.4408,-2.442,-2.4419,-2.4419,-2.4419,-2.4466,-2.4468,-2.4469,0,0,0,0,0,0,0,0,0,0,0,0,0,-2.4266,-2.4267,-2.4357,-2.4358,-2.4358,-2.4407,-2.4408,-2.4409,-2.442,-2.4419,-2.4419,-2.4419,-2.4466,-2.4468,-2.447,0,0,0,0,0,0,0,0,0,0,0,0,0,-2.4309,-2.4268,-2.4357,-2.437,-2.4372,-2.4407,-2.4408,-2.4409,-2.442,-2.4419,-2.4419,-2.4418,-2.4465,-2.4467,-2.447,-2.4495,0,0,-2.4477,-2.4478,0,0,0,0,0,0,0,0,-2.4307,-2.4313,-2.4367,-2.4369,-2.4371,-2.4407,-2.4393,-2.4437,-2.442,-2.4401,-2.4419,-2.4418,-2.4447,-2.445,-2.4461,-2.4497,-2.4499,-2.4477,-2.4479,-2.448,-2.448,0,0,0,0,0,0,0,-2.4304,-2.4311,-2.4377,-2.4368,-2.437,-2.4371,-2.4377,-2.4402,-2.4426,-2.4403,-2.4404,-2.441,-2.4447,-2.4459,-2.4462,-2.45,-2.4477,-2.4479,-2.4481,-2.4482,-2.4557,-2.4557,0,0,0,0,0,0,-2.4299,-2.4308,-2.4375,-2.4378,-2.4337,-2.4374,-2.438,-2.4396,-2.4426,-2.443,-2.441,-2.441,-2.4455,-2.4459,-2.4464,-2.4494,-2.448,-2.4482,-2.4483,-2.4556,-2.4557,-2.4557,0,0,0,0,0,0,-2.4297,-2.4305,-2.4373,-2.4343,-2.4352,-2.4376,-2.4393,-2.4397,-2.4408,-2.4432,-2.4436,-2.4418,-2.4455,-2.446,-2.4487,-2.4496,-2.4483,-2.4485,-2.4555,-2.4556,-2.4557,-2.4555,0,0,0,0,0,0,-2.4295,-2.4304,-2.4315,-2.4344,-2.4354,-2.4397,-2.4394,-2.4398,-2.4413,-2.4413,-2.4439,-2.4443,-2.4455,-2.4483,-2.4489,-2.4499,-2.4487,-2.4555,-2.4556,-2.4557,-2.4554,-2.4555,-2.4557,0,0,0,0,0,-2.4291,-2.4312,-2.4316,-2.4324,-2.4368,-2.4397,-2.4403,-2.4417,-2.4414,-2.4424,-2.4438,-2.4442,-2.4494,-2.4486,-2.4493,-2.4503,-2.4554,-2.4555,-2.4557,-2.4554,-2.4555,-2.4557,0,0,0,0,0,0,-2.4284,-2.4316,-2.4321,-2.4352,-2.4372,-2.4399,-2.4413,-2.4418,-2.4439,-2.4438,-2.4453,-2.4459,-2.4484,-2.4496,-2.4487,-2.4528,-2.4524,-2.4526,-2.4519,-2.4521,-2.4522,-2.4518,-2.4489,0,0,0,0,0,-2.4286,-2.4308,-2.4335,-2.436,-2.437,-2.4389,-2.4403,-2.4412,-2.4432,-2.444,-2.4457,-2.4476,-2.4496,-2.4509,-2.4529,-2.4556,-2.4561,-2.4566,-2.4567,-2.4568,-2.457,-2.4583,-2.4586,-2.4561,-2.4561,-2.4561,0,0,-2.429,-2.4311,-2.4324,-2.4359,-2.4375,-2.4396,-2.4396,-2.4419,-2.4434,-2.4443,-2.4469,-2.4482,-2.4504,-2.453,-2.4542,-2.4541,-2.4578,-2.457,-2.457,-2.4572,-2.4585,-2.4587,-2.4589,-2.4562,-2.4562,-2.4562,0,0,-2.4308,-2.4327,-2.4349,-2.4365,-2.4391,-2.4404,-2.4409,-2.4435,-2.4444,-2.4471,-2.4477,-2.4495,-2.453,-2.4545,-2.4557,-2.4579,-2.4583,-2.4585,-2.4591,-2.4604,-2.4606,-2.4607,-2.4614,-2.4616,-2.4587,-2.4587,-2.4587,0,-2.431,-2.4344,-2.4359,-2.4381,-2.4396,-2.4406,-2.4427,-2.4442,-2.4472,-2.448,-2.4479,-2.4522,-2.4537,-2.4566,-2.4572,-2.4581,-2.4586,-2.4582,-2.4604,-2.4606,-2.4608,-2.4614,-2.4617,-2.4587,-2.4587,-2.4587,-2.4587,0,-2.4343,-2.4366,-2.4381,-2.441,-2.4426,-2.4448,-2.4465,-2.4479,-2.4486,-2.4498,-2.4524,-2.4543,-2.4566,-2.4573,-2.458,-2.4603,-2.4601,-2.4602,-2.4598,-2.461,-2.4616,-2.4619,-2.4587,-2.4587,-2.4587,-2.4587,0,0,-2.4359,-2.4396,-2.4401,-2.4414,-2.4442,-2.4459,-2.448,-2.4504,-2.4515,-2.4534,-2.4551,-2.458,-2.458,-2.4594,-2.4602,-2.4614,-2.4628,-2.4613,-2.4613,-2.4614,-2.4652,-2.4651,-2.4654,-2.4631,-2.4631,-2.4632,-2.465,0,-2.438,-2.4419,-2.4433,-2.4465,-2.4485,-2.4494,-2.4512,-2.453,-2.4542,-2.4559,-2.4572,-2.4591,-2.4591,-2.4599,-2.4611,-2.4624,-2.4636,-2.4623,-2.4645,-2.4646,-2.4639,-2.4657,-2.4657,-2.4673,-2.4653,-2.4653,-2.4654,0,-2.441,-2.4431,-2.4465,-2.4489,-2.4498,-2.4514,-2.4536,-2.4553,-2.4573,-2.458,-2.4595,-2.4603,-2.4623,-2.4618,-2.4645,-2.4636,-2.4645,-2.4653,-2.4654,-2.4656,-2.465,-2.4659,-2.4679,-2.4681,-2.4658,-2.4657,-2.4657,0,-2.4416,-2.4453,-2.4477,-2.4488,-2.4517,-2.4528,-2.454,-2.456,-2.4573,-2.4591,-2.4599,-2.462,-2.4631,-2.4645,-2.4657,-2.4653,-2.4683,-2.4679,-2.4688,-2.4688,-2.4694,-2.4693,-2.4714,-2.4701,-2.4701,-2.4701,-2.4701,0,-2.4438,-2.4458,-2.4481,-2.4496,-2.4518,-2.4532,-2.4553,-2.4566,-2.4583,-2.4599,-2.4608,-2.4623,-2.4638,-2.4654,-2.4663,-2.4683,-2.4689,-2.4694,-2.4696,-2.4693,-2.4692,-2.4699,-2.4698,-2.4702,-2.4702,-2.4701,-2.4701,0,-2.4448,-2.4465,-2.4492,-2.4517,-2.4524,-2.4539,-2.4559,-2.4573,-2.4585,-2.4606,-2.4611,-2.4629,-2.4649,-2.4662,-2.4687,-2.4693,-2.4714,-2.4717,-2.4708,-2.4709,-2.4717,-2.4716,-2.4743,-2.4747,-2.4731,-2.4732,-2.4732,0,-2.4461,-2.4476,-2.4503,-2.4515,-2.4528,-2.4547,-2.456,-2.4575,-2.4588,-2.4611,-2.4621,-2.4642,-2.4659,-2.4689,-2.4703,-2.4722,-2.4724,-2.4732,-2.4727,-2.4723,-2.4723,-2.4722,-2.4723,-2.4733,-2.4733,-2.4733,-2.4733,0,-2.448,-2.4487,-2.4507,-2.4529,-2.4544,-2.4562,-2.458,-2.4589,-2.4606,-2.462,-2.464,-2.4653,-2.4679,-2.4698,-2.4718,-2.4729,-2.4733,-2.4735,-2.4738,-2.4734,-2.4728,-2.4731,-2.4709,-2.4734,-2.4734,-2.4734,-2.4734,-2.4734,-2.4491,-2.4505,-2.4526,-2.4547,-2.4562,-2.4578,-2.4592,-2.4605,-2.4623,-2.4646,-2.4653,-2.4674,-2.4691,-2.4718,-2.4729,-2.4745,-2.4744,-2.4748,-2.4749,-2.475,-2.4749,-2.4726,-2.4748,-2.4748,-2.4748,-2.4748,-2.4748,0,-2.451,-2.4524,-2.4543,-2.4568,-2.4584,-2.4588,-2.4607,-2.462,-2.4638,-2.4655,-2.4672,-2.4694,-2.4713,-2.4728,-2.4747,-2.4756,-2.4759,-2.476,-2.476,-2.4762,-2.4749,-2.4745,-2.4758,-2.4758,-2.4758,-2.4758,-2.4758,-2.4758,-2.4522,-2.4546,-2.4555,-2.4585,-2.4598,-2.4619,-2.463,-2.4644,-2.4657,-2.4682,-2.4698,-2.4708,-2.4724,-2.4744,-2.476,-2.4764,-2.477,-2.4771,-2.4776,-2.4764,-2.4763,-2.4762,-2.4757,-2.4773,-2.4773,-2.4787,-2.4787,-2.4787]}]]